Regional Weather Roundup
Issued by NWS State College, PA

Home | Current Version | Previous Version | Graphics & Text | Print | Product List | Glossary On
Versions: 1 2 3 4 5 6 7 8 9 10 11 12 13 14 15 16 17 18 19 20 21 22 23 24 25 26 27 28 29 30 31 32 33 34 35 36 37 38 39 40 41 42 43 44 45 46 47 48 49 50
000
ASUS41 KCTP 220610
RWRCTP

REGIONAL WEATHER ROUNDUP
NATIONAL WEATHER SERVICE STATE COLLEGE PA
200 AM EDT TUE JUL 22 2014

Note: "fair" indicates few or no clouds below 12,000 feet with no
significant weather and/or obstructions to visibility.

* = STATION THAT DOES NOT REPORT PRECIPITATION /E.G. RAIN...SNOW...ETC/
    THUNDER OR FOG.

PAZ002>004-007>009-013>016-020>023-029>032-220700-
WESTERN PENNSYLVANIA

CITY           SKY/WX    TMP DP  RH WIND       PRES   REMARKS
ERIE           CLEAR     67  62  84 S5        30.13S
MEADVILLE      CLEAR     69  64  84 E3        30.16F
FRANKLIN*      CLEAR     66  63  88 E3        30.18F
NEW CASTLE       N/A     67  67 100 CALM      30.15F
BEAVER COUNTY  NOT AVBL
BUTLER*        CLEAR     72  66  83 SE3       30.16F
PITTSBURGH INT PTCLDY    73  69  87 CALM      30.14S
PITTSBURGH     CLEAR     72  67  84 SE6       30.14F
INDIANA*       CLOUDY    70  68  94 CALM      30.20F
LATROBE        MOCLDY    73  70  88 W3        30.16S
WASHINGTON CO* MOCLDY    64  63  94 CALM      30.14F VSB 1/2
$$

PAZ004>006-010>012-017>019-024>028-033>037-041-042-045-046-049>053-220700-
CENTRAL PENNSYLVANIA

CITY           SKY/WX    TMP DP  RH WIND       PRES   REMARKS
BRADFORD       MOCLDY    66  64  93 CALM      30.20F
DUBOIS         CLEAR     70  66  87 SE5       30.18F
CLEARFIELD     CLEAR     64  64 100 N3        30.19F FOG
JOHNSTOWN      PTCLDY    67  65  93 S6        30.21F
ALTOONA        CLEAR     66  65  96 CALM      30.20S FOG
STATE COLLEGE  CLOUDY    66  65  96 CALM      30.18F
WILLIAMSPORT   MOCLDY    68  64  87 CALM      30.16S
SELINSGROVE    CLOUDY    66  64  93 CALM      30.17F FOG
FT INDIANTOWN  CLOUDY    66  66 100 N1        30.18S
CAPITAL CITY   MOCLDY    73  65  75 CALM      30.16F
HARRISBURG     MOCLDY    73  66  78 E3        30.16F
YORK           CLEAR     66  63  90 CALM      30.17F
$$

PAZ038>040-043-044-047-048-054-055-060>062-067>071-220700-
EASTERN PENNSYLVANIA

CITY           SKY/WX    TMP DP  RH WIND       PRES   REMARKS
SCRANTON       CLEAR     66  62  87 E3        30.18F
MOUNT POCONO   CLEAR     64  61  90 W5        30.22F
ALLENTOWN      CLEAR     68  64  87 SW5       30.18S
QUAKERTOWN*    PTCLDY    64  64 100 CALM      30.20S
READING        CLEAR     70  64  81 SE3       30.17F
LANCASTER      CLOUDY    68  65  90 CALM      30.18S
COATESVILLE    CLEAR     64  63  94 CALM      30.20F
POTTSTOWN      CLEAR     66  61  84 CALM      30.20F
BLUE BELL      CLEAR     66  63  88 CALM      30.18S
DOYLESTOWN     CLEAR     67  61  81 CALM      30.18F
WILLOW GROVE   NOT AVBL
NORTH PHILA    CLEAR     71  57  61 SW3       30.19F
PHILADELPHIA   CLEAR     71  60  68 SW5       30.18F
$$



USA.gov is the U.S. government's official web portal to all federal, state and local government web resources and services.